Regional Weather Roundup
Issued by NWS

Home | Current Version | Previous Version | Text Only | Print | Product List | Glossary Off
Versions: 1 2 3 4 5 6 7 8 9 10 11 12 13 14 15 16 17 18 19 20 21 22 23 24 25 26 27 28 29 30 31 32 33 34 35 36 37 38 39 40 41 42 43 44 45 46 47 48 49 50

000
ASUS44 KMEG 061600
RWRTN
TENNESSEE HOURLY STATE WEATHER ROUNDUP
NATIONAL WEATHER SERVICE MEMPHIS TN
1000 AM CST TUE DEC 06 2016

TNZ002-004-019-021-049-052-054-088>092-061700-
WEST TENNESSEE

CITY           SKY/WX    TMP DP  RH WIND       PRES   REMARKS
MEMPHIS INTL   CLOUDY    45  44  97 NW9       29.87R
NWS MEMPHIS      N/A     44 N/A N/A MISG        N/A
JACKSON        CLOUDY    46  44  93 NW12      29.81R
DYERSBURG      CLOUDY   N/A N/A N/A NW8       29.83R
UNION CITY     CLOUDY    43  43 100 NW12      29.79R
LEXINGTON      CLOUDY    46  46 100 NW9       29.75R
$$

TNZ008-025-027-028-033-062-065-066-061700-
NORTH MIDDLE TENNESSEE

CITY           SKY/WX    TMP DP  RH WIND       PRES   REMARKS
NASHVILLE      PTSUNNY   57  52  83 VRB3      29.68R
CLARKSVILLE    CLOUDY    45  42  89 NW10      29.73R
SMYRNA         CLOUDY    55  53  93 N3        29.69R
CROSSVILLE     RAIN      52  50  93 SE5       29.69R FOG
$$

TNZ061-075-076-078-094-096-097-061700-
SOUTH MIDDLE TENNESSEE

CITY           SKY/WX    TMP DP  RH WIND       PRES   REMARKS
TULLAHOMA      CLOUDY    54  54 100 S7        29.69R
WINCHESTER     CLOUDY    57  55  94 S6        29.69R
SHELBYVILLE    CLOUDY    57  57 100 S6        29.68R
$$

TNZ017-018-042-046-047-061700-
NORTHEAST TENNESSEE

CITY           SKY/WX    TMP DP  RH WIND       PRES   REMARKS
TRI CITIES     RAIN      46  43  89 N14       29.77R FOG
$$

TNZ012-013-036-069-073-074-061700-
CENTRAL EAST TENNESSEE

CITY           SKY/WX    TMP DP  RH WIND       PRES   REMARKS
KNOXVILLE      LGT RAIN  50  48  93 NE5       29.68S
OAK RIDGE      LGT RAIN  52  49  89 VRB3      29.70F
GATLINBURG     CLOUDY    48  48 100 E3        29.68F
$$

TNZ083-085-099-061700-
SOUTHEAST TENNESSEE

CITY           SKY/WX    TMP DP  RH WIND       PRES   REMARKS
CHATTANOOGA    LGT RAIN  54  52  93 E3        29.72R FOG
$$

SKY/WX REPORTED AS FAIR MEANS FEW OR NO CLOUDS BELOW
12 THOUSAND FEET.





USA.gov is the U.S. government's official web portal to all federal, state and local government web resources and services.